Tiempo cada hora Godziecin

Hoy, 29 Noviembre, Domingo

Tiempo Temperatura Precipitaciones Viento Presión Humedad
00:00 0°C° 0 mm 3 mps 752 mmHg 82%
01:00 -1°C° 0 mm 4 mps 752 mmHg 88%
02:00 -1°C° 0.2 mm 4 mps 752 mmHg 90%
03:00 0°C° 0.2 mm 4 mps 752 mmHg 92%
04:00 0°C° 0.2 mm 4 mps 751 mmHg 94%
05:00 0°C° 0.4 mm 4 mps 751 mmHg 95%
06:00 +1°C° 0.4 mm 3 mps 751 mmHg 96%
07:00 +1°C° 0 mm 3 mps 751 mmHg 96%
08:00 +1°C° 0.4 mm 3 mps 751 mmHg 96%
09:00 +1°C° 0.4 mm 3 mps 751 mmHg 96%
10:00 +1°C° 0.4 mm 3 mps 751 mmHg 95%
11:00 +1°C° 0.2 mm 3 mps 752 mmHg 94%
12:00 +1°C° 0.2 mm 3 mps 752 mmHg 92%
13:00 +1°C° 0.2 mm 3 mps 752 mmHg 90%
14:00 +1°C° 0.1 mm 3 mps 752 mmHg 90%
15:00 +1°C° 0.1 mm 2 mps 751 mmHg 90%
16:00 +1°C° 0.1 mm 2 mps 751 mmHg 89%
17:00 -1°C° 0 mm 2 mps 752 mmHg 90%
18:00 +1°C° 0 mm 1 mps 752 mmHg 92%
19:00 +1°C° 0 mm 1 mps 752 mmHg 93%
20:00 +1°C° 0 mm 1 mps 752 mmHg 93%
21:00 0°C° 0 mm 1 mps 752 mmHg 93%
22:00 0°C° 0 mm 1 mps 753 mmHg 93%
23:00 0°C° 0 mm 1 mps 753 mmHg 92%

Mañana, 30 Noviembre, Lunes

Tiempo Temperatura Precipitaciones Viento Presión Humedad
00:00 0°C° 0 mm 1 mps 753 mmHg 90%
01:00 0°C° 0 mm 1 mps 753 mmHg 89%
02:00 0°C° 0 mm 1 mps 753 mmHg 90%
03:00 -1°C° 0 mm 0 mps 753 mmHg 91%
04:00 -1°C° 0 mm 0 mps 753 mmHg 92%
05:00 0°C° 0.1 mm 0 mps 753 mmHg 93%
06:00 +1°C° 0.1 mm 1 mps 753 mmHg 94%
07:00 +1°C° 0.1 mm 1 mps 753 mmHg 95%
08:00 +1°C° 0.1 mm 1 mps 754 mmHg 95%
09:00 +1°C° 0.1 mm 2 mps 754 mmHg 95%
10:00 +1°C° 0.1 mm 2 mps 754 mmHg 95%
11:00 +1°C° 0 mm 2 mps 754 mmHg 93%
12:00 +1°C° 0 mm 2 mps 754 mmHg 91%
13:00 +2°C° 0 mm 2 mps 754 mmHg 89%
14:00 +1°C° 0 mm 2 mps 753 mmHg 87%
15:00 +1°C° 0 mm 2 mps 753 mmHg 86%
16:00 +1°C° 0 mm 2 mps 753 mmHg 85%
17:00 +1°C° 0 mm 2 mps 753 mmHg 84%
18:00 +1°C° 0 mm 2 mps 753 mmHg 83%
19:00 +1°C° 0 mm 2 mps 753 mmHg 82%
20:00 -1°C° 0 mm 2 mps 753 mmHg 83%
21:00 -1°C° 0 mm 2 mps 752 mmHg 84%
22:00 -1°C° 0 mm 3 mps 752 mmHg 86%
23:00 -1°C° 0 mm 3 mps 752 mmHg 86%

Pasado mañana, 1 Diciembre, Martes

Tiempo Temperatura Precipitaciones Viento Presión Humedad
00:00 -2°C° 0 mm 3 mps 751 mmHg 86%
01:00 -2°C° 0 mm 3 mps 751 mmHg 87%
02:00 -2°C° 0 mm 3 mps 750 mmHg 86%
03:00 -2°C° 0 mm 3 mps 750 mmHg 85%
04:00 -3°C° 0 mm 4 mps 750 mmHg 84%
05:00 -3°C° 0 mm 4 mps 750 mmHg 84%
06:00 -3°C° 0 mm 4 mps 750 mmHg 84%
07:00 -3°C° 0 mm 4 mps 750 mmHg 84%
08:00 -3°C° 0 mm 4 mps 750 mmHg 80%
09:00 -2°C° 0 mm 4 mps 750 mmHg 77%
10:00 -1°C° 0 mm 4 mps 750 mmHg 73%
11:00 -1°C° 0 mm 4 mps 750 mmHg 72%
12:00 0°C° 0 mm 4 mps 750 mmHg 70%
13:00 0°C° 0 mm 4 mps 750 mmHg 69%
14:00 -1°C° 0 mm 4 mps 750 mmHg 73%
15:00 0°C° 0 mm 3 mps 750 mmHg 77%
16:00 -1°C° 0 mm 3 mps 750 mmHg 81%
17:00 -2°C° 0 mm 3 mps 750 mmHg 82%
18:00 -2°C° 0 mm 3 mps 751 mmHg 83%
19:00 -2°C° 0 mm 2 mps 751 mmHg 83%
20:00 -2°C° 0 mm 2 mps 751 mmHg 84%
21:00 -3°C° 0 mm 2 mps 751 mmHg 84%
22:00 -3°C° 0 mm 2 mps 752 mmHg 84%
23:00 -3°C° 0 mm 2 mps 752 mmHg 84%

2 Diciembre, Miércoles

Tiempo Temperatura Precipitaciones Viento Presión Humedad
00:00 -3°C° 0 mm 2 mps 752 mmHg 84%
01:00 -3°C° 0 mm 2 mps 752 mmHg 83%
02:00 -3°C° 0 mm 2 mps 751 mmHg 83%
03:00 -3°C° 0 mm 2 mps 751 mmHg 83%
04:00 -3°C° 0 mm 2 mps 751 mmHg 83%
05:00 -3°C° 0 mm 2 mps 751 mmHg 83%
06:00 -4°C° 0 mm 2 mps 751 mmHg 83%
07:00 -4°C° 0 mm 2 mps 751 mmHg 82%
08:00 -3°C° 0 mm 2 mps 751 mmHg 79%
09:00 -2°C° 0 mm 2 mps 751 mmHg 75%
10:00 -2°C° 0 mm 2 mps 751 mmHg 72%
11:00 -1°C° 0 mm 2 mps 750 mmHg 69%
12:00 -1°C° 0 mm 2 mps 750 mmHg 67%
13:00 +1°C° 0 mm 2 mps 750 mmHg 64%
14:00 -1°C° 0 mm 2 mps 749 mmHg 68%
15:00 -2°C° 0 mm 2 mps 749 mmHg 72%
16:00 -3°C° 0 mm 2 mps 749 mmHg 76%
17:00 -3°C° 0 mm 2 mps 749 mmHg 77%
18:00 -4°C° 0 mm 3 mps 748 mmHg 78%
19:00 -4°C° 0 mm 3 mps 748 mmHg 79%
20:00 -4°C° 0 mm 3 mps 748 mmHg 79%
21:00 -4°C° 0 mm 3 mps 748 mmHg 78%
22:00 -4°C° 0 mm 3 mps 748 mmHg 78%
23:00 -3°C° 0 mm 2 mps 748 mmHg 76%

3 Diciembre, Jueves

Tiempo Temperatura Precipitaciones Viento Presión Humedad
00:00 -3°C° 0 mm 2 mps 747 mmHg 75%
01:00 -3°C° 0 mm 2 mps 747 mmHg 74%
02:00 -3°C° 0 mm 2 mps 747 mmHg 72%
03:00 -3°C° 0 mm 2 mps 746 mmHg 71%
04:00 -3°C° 0 mm 2 mps 746 mmHg 69%
05:00 -3°C° 0 mm 2 mps 746 mmHg 69%
06:00 -3°C° 0 mm 2 mps 746 mmHg 68%
07:00 -3°C° 0 mm 2 mps 745 mmHg 67%
08:00 -2°C° 0 mm 3 mps 745 mmHg 65%
09:00 -2°C° 0 mm 3 mps 745 mmHg 62%
10:00 -1°C° 0 mm 3 mps 745 mmHg 60%
11:00 0°C° 0 mm 3 mps 745 mmHg 59%
12:00 0°C° 0 mm 3 mps 744 mmHg 59%
13:00 +1°C° 0 mm 3 mps 744 mmHg 58%
14:00 0°C° 0 mm 3 mps 743 mmHg 62%
15:00 0°C° 0 mm 3 mps 743 mmHg 66%
16:00 -1°C° 0 mm 3 mps 743 mmHg 70%
17:00 -1°C° 0.3 mm 3 mps 742 mmHg 73%
18:00 -1°C° 0.3 mm 3 mps 742 mmHg 75%
19:00 -1°C° 0.3 mm 3 mps 742 mmHg 78%
20:00 -1°C° 0.1 mm 3 mps 742 mmHg 74%
21:00 -1°C° 0.1 mm 3 mps 741 mmHg 71%
22:00 -1°C° 0.1 mm 3 mps 741 mmHg 67%
23:00 -1°C° 0 mm 3 mps 740 mmHg 68%

4 Diciembre, Viernes

Tiempo Temperatura Precipitaciones Viento Presión Humedad
00:00 -2°C° 0 mm 3 mps 740 mmHg 69%
01:00 -2°C° 0 mm 3 mps 740 mmHg 70%
02:00 -2°C° 0 mm 3 mps 739 mmHg 72%
03:00 -1°C° 0 mm 3 mps 739 mmHg 74%
04:00 -1°C° 0 mm 3 mps 738 mmHg 75%
05:00 -2°C° 0 mm 4 mps 738 mmHg 76%
06:00 -2°C° 0 mm 4 mps 738 mmHg 77%
07:00 -2°C° 0 mm 4 mps 738 mmHg 78%
08:00 -1°C° 0 mm 4 mps 738 mmHg 77%
09:00 0°C° 0 mm 5 mps 738 mmHg 76%
10:00 +1°C° 0 mm 5 mps 738 mmHg 75%
11:00 +2°C° 0 mm 5 mps 738 mmHg 73%
12:00 +3°C° 0 mm 5 mps 738 mmHg 72%
13:00 +5°C° 0 mm 5 mps 737 mmHg 71%
14:00 +3°C° 0 mm 5 mps 737 mmHg 72%
15:00 +2°C° 0 mm 6 mps 737 mmHg 74%
16:00 +1°C° 0 mm 6 mps 737 mmHg 76%
17:00 +1°C° 0 mm 6 mps 737 mmHg 77%
18:00 +1°C° 0 mm 6 mps 737 mmHg 78%
19:00 +1°C° 0 mm 5 mps 737 mmHg 80%
20:00 +1°C° 0 mm 5 mps 737 mmHg 80%
21:00 +1°C° 0 mm 5 mps 737 mmHg 81%
22:00 +1°C° 0 mm 5 mps 737 mmHg 81%
23:00 +1°C° 0 mm 6 mps 736 mmHg 82%
Mostrar más

Necesitamos Su Consentimiento

Meteoprog y nuestros Proveedores de Servicios pueden almacenar y acceder a sus datos personales como cookies, identificadores de dispositivo u otras tecnologías similares de su dispositivo y procesar dichos datos para personalizar contenido y anuncios, además de ofrecer funciones de redes sociales y analizar el tráfico.

  • Almacenar y/o acceder a información en su dispositivo

    Se puede almacenar o acceder a cookies, identificadores de dispositivo u otra información de su dispositivo para los fines anteriormente indicados.

  • Anuncios y contenido personalizados, medición de anuncios y contenido, percepciones del público, y desarrollo de productos

    Los anuncios y el contenido pueden personalizarse en base a su perfil. Se pueden añadir más datos para personalizar mejor los anuncios y contenidos. Se puede medir el rendimiento de los anuncios y contenidos. Se puede obtener la percepción sobre el público que ha visto los anuncios y contenidos. Dichos datos pueden usarse para desarrollar o mejorar la experiencia del usuario, sistemas y software.

Al hacer clic en ‘Estoy De Acuerdo’ usted permitirá el uso de las cookies, identificadores de dispositivo, balizas web u otras tecnologías similares indicadas. Su configuración puede cambiarse desde el navegador de su dispositivo.

Para ciertos fines, los intereses legítimos pueden ser considerados por encima del consentimiento. Puede leer más sobre ello en nuestra Política de Privacidad y Cookies.